Location: Pardubice
(50.0330°N, 15.7830°E)
Time: 04:08:35
(UTC+01:00)

Transit 2A Rocket - Pass Details

Date: 10 October 2024
Orbit: 584 x 906 km, 66.7° (Epoch: 10 November)

Event Time Altitude Azimuth Distance (km) Brightness Sun altitude
Rises 23:24:28 0° 312° (NW) 3,517 9.1 -44.0°
Reaches altitude 10° 23:28:04 10° 333° (NNW) 2,541 8.3 -44.2°
Enters shadow 23:30:04 15° 351° (N) 2,187 7.8 -44.4°
